Jacksonville, FL

1:14 PM EST on January 21, 2017 (GMT -0500)
Jacksonville NAS

Weather History for KNIP - August, 2014

Change the Weather History Date:

Sunday, August 24, 2014

  Actual Average Record
Temperature  
Mean Temperature 84 °F -  
Max Temperature 93 °F 88 °F 93 °F (2002)
Min Temperature 78 °F 73 °F 69 °F (2012)
Cooling Degree Days 20    
Growing Degree Days 34 (Base 50)    
Moisture  
Dew Point 74 °F    
Average Humidity 71    
Maximum Humidity 81    
Minimum Humidity 55    
Precipitation  
Precipitation 0.01 in - - ()
Sea Level Pressure  
Sea Level Pressure 29.85 in    
Wind  
Wind Speed 9 mph (NNE)    
Max Wind Speed 24 mph    
Max Gust Speed 31 mph    
Visibility 10 miles    
Events Rain    
Averages and records for this station are not official NWS values.
T = Trace of Precipitation, MM = Missing Value Source: NWS Daily Summary

Daily Weather History Graph

Daily Weather History Graph

Search for Another Location

Airport or City:

Trip Planner

Search our weather history database for the weather conditions in past years. The results will help you decide how hot, cold, wet, or windy it might be!

Date:

Astronomy

Aug. 24, 2014 Rise Set
Actual Time 6:59 AM EDT 7:58 PM EDT
Civil Twilight 6:34 AM EDT 8:23 PM EDT
Nautical Twilight 6:04 AM EDT 8:52 PM EDT
Astronomical Twilight 5:34 AM EDT 9:22 PM EDT
Moon 6:08 AM EDT (8/24) 7:18 PM EDT (8/24)
Length of Visible Light 13h 49m
Length of Day
12h 59m
Waning Crescent, 1% of the Moon is Illuminated
Aug 24
Waning Crescent
Aug 25
New
Sep 2
First Quarter
Sep 8
Full
Sep 15
Last Quarter

Hourly Weather History & Observations

Time (EDT) Temp. Heat Index Dew Point Humidity Pressure Visibility Wind Dir Wind Speed Gust Speed Precip Events Conditions
12:53 AM 80.1 °F 84.2 °F 73.0 °F 79% 29.86 in 10.0 mi West 3.5 mph - N/A   Partly Cloudy
1:53 AM 81.0 °F 85.8 °F 73.0 °F 77% 29.84 in 10.0 mi Calm Calm - N/A   Partly Cloudy
2:53 AM 80.1 °F 84.2 °F 73.0 °F 79% 29.84 in 10.0 mi WSW 3.5 mph - N/A   Partly Cloudy
3:53 AM 80.1 °F 84.2 °F 73.0 °F 79% 29.83 in 10.0 mi SW 5.8 mph - N/A   Partly Cloudy
4:53 AM 80.1 °F 83.8 °F 72.0 °F 76% 29.81 in 10.0 mi SW 5.8 mph - N/A   Partly Cloudy
5:53 AM 79.0 °F - 72.0 °F 79% 29.82 in 10.0 mi WSW 5.8 mph - N/A   Partly Cloudy
6:53 AM 78.1 °F - 72.0 °F 81% 29.83 in 10.0 mi WSW 5.8 mph - N/A   Scattered Clouds
7:53 AM 79.0 °F - 72.0 °F 79% 29.85 in 10.0 mi Calm Calm - N/A   Scattered Clouds
8:53 AM 82.0 °F 87.4 °F 73.0 °F 74% 29.85 in 10.0 mi West 6.9 mph - N/A   Scattered Clouds
9:53 AM 86.0 °F 95.1 °F 75.0 °F 70% 29.86 in 10.0 mi NNW 6.9 mph - N/A   Mostly Cloudy
10:53 AM 88.0 °F 96.5 °F 73.9 °F 63% 29.86 in 10.0 mi North 5.8 mph - N/A   Mostly Cloudy
11:53 AM 91.9 °F 101.3 °F 73.9 °F 55% 29.86 in 10.0 mi NNE 13.8 mph - N/A   Mostly Cloudy
12:53 PM 91.9 °F 105.9 °F 77.0 °F 62% 29.86 in 10.0 mi NE 13.8 mph - N/A   Overcast
1:32 PM 90.0 °F 100.2 °F 75.0 °F 61% 29.87 in 10.0 mi ENE 19.6 mph 28.8 mph N/A   Overcast
1:53 PM 91.0 °F 101.6 °F 75.0 °F 59% 29.86 in 10.0 mi NE 18.4 mph - N/A   Overcast
2:53 PM 91.0 °F 99.3 °F 73.0 °F 55% 29.86 in 10.0 mi ENE 18.4 mph 25.3 mph N/A   Overcast
3:53 PM 86.0 °F 96.9 °F 77.0 °F 74% 29.85 in 7.0 mi NNE 24.2 mph 31.1 mph N/A Rain Light Rain
4:18 PM 84.9 °F 96.6 °F 78.1 °F 80% 29.87 in 10.0 mi NE 12.7 mph - N/A   Overcast
4:53 PM 86.0 °F 98.3 °F 78.1 °F 77% 29.84 in 6.0 mi NE 16.1 mph - N/A Rain Rain
5:53 PM 87.1 °F 97.3 °F 75.9 °F 69% 29.84 in 10.0 mi NE 21.9 mph 27.6 mph 0.00 in   Mostly Cloudy
6:53 PM 86.0 °F 93.8 °F 73.9 °F 67% 29.84 in 10.0 mi NE 17.3 mph - N/A   Mostly Cloudy
7:53 PM 86.0 °F 93.8 °F 73.9 °F 67% 29.85 in 10.0 mi NE 17.3 mph - N/A   Mostly Cloudy
8:53 PM 84.9 °F 92.1 °F 73.9 °F 69% 29.86 in 10.0 mi NE 17.3 mph 25.3 mph N/A   Mostly Cloudy
9:53 PM 84.9 °F 92.1 °F 73.9 °F 69% 29.88 in 10.0 mi NE 18.4 mph 29.9 mph N/A   Mostly Cloudy
10:53 PM 84.0 °F 91.2 °F 73.9 °F 72% 29.89 in 10.0 mi ENE 21.9 mph 29.9 mph 0.00 in Rain Light Rain
11:53 PM 82.0 °F 87.4 °F 73.0 °F 74% 29.90 in 10.0 mi East 9.2 mph - 0.00 in   Mostly Cloudy